Regional Weather Roundup
Issued by NWS

Home | Current Version | Previous Version | Graphics & Text | Print | Product List | Glossary On
Versions: 1 2 3 4 5 6 7 8 9 10 11 12 13 14 15 16 17 18 19 20 21 22 23 24 25 26 27 28 29 30 31 32 33 34 35 36 37 38 39 40 41 42 43 44 45 46 47 48 49 50
000
ASUS43 KFSD 100810
RWRSD

WEATHER ROUNDUP FOR SOUTH DAKOTA
NATIONAL WEATHER SERVICE SIOUX FALLS SD
300 AM CDT THU JUL 10 2014

NOTE: "FAIR" INDICATES FEW OR NO CLOUDS BELOW 12,000 FEET WITH NO
SIGNIFICANT WEATHER AND/OR OBSTRUCTIONS TO VISIBILITY.


SDZ001>005-009-010-012>017-100900-
NORTHWEST AND NORTH CENTRAL SOUTH DAKOTA

CITY           SKY/WX    TMP DP  RH WIND       PRES   REMARKS
BUFFALO          N/A     61  54  77 SE13      29.87F
FAITH            N/A     58  55  90 SE9       29.95F
MOBRIDGE       CLEAR     61  57  87 SW6       29.94S
$$

SDZ012>016-024>037-041>051-057-063-072>074-100900-
SOUTHWEST AND SOUTH CENTRAL SOUTH DAKOTA

CITY           SKY/WX    TMP DP  RH WIND       PRES   REMARKS
RAPID CTY ARPT MOCLDY    58  55  90 SE5       29.94F
PIERRE         CLEAR     56  53  90 E6        29.94F
CUSTER         CLEAR     57  55  93 NE5       30.04F
ELLSWORTH AFB  MOCLDY    60  58  92 SE7       29.93F
PHILIP         CLEAR     57  55  93 CALM      29.93F
PINE RIDGE     PTCLDY    61  58  90 CALM      29.93F
WINNER         FAIR      62  59  90 SE8       29.95F
$$

SDZ004>011-016>023-039-040-100900-
NORTHEAST SOUTH DAKOTA

CITY           SKY/WX    TMP DP  RH WIND       PRES   REMARKS
ABERDEEN       CLEAR     57  55  93 SE6       29.98S
WATERTOWN      CLEAR     60  52  74 SE3       30.01S
SISSETON         N/A     58  55  90 CALM      29.99S
$$

SDZ017-020-022-023-036>040-048>070-100900-
SOUTHEAST SOUTH DAKOTA

CITY           SKY/WX    TMP DP  RH WIND       PRES   REMARKS
SIOUX FALLS    CLEAR     62  59  90 CALM      30.00F
HURON          CLEAR     61  57  87 SE6       29.97S
CHAMBERLAIN    CLEAR     59  56  90 SE5       29.95F
MITCHELL       CLEAR     63  59  87 CALM      29.98F
YANKTON        CLEAR     59  57  94 NE5       29.99F
$$

ABBREVIATIONS USED IN REMARKS
   TC - TEMPERATURE IN CELSIUS
  WCI - WIND CHILL INDEX
   HX - HEAT INDEX
  VSB - VISIBILITY



USA.gov is the U.S. government's official web portal to all federal, state and local government web resources and services.